Location: Mat�lon
(46.2791°N, 7.1028°E)
Time: 16:56:50
(UTC+00:00)

Cosmos 2227 - Pass Details

Date: 18 September 2020
Orbit: 836 x 859 km, 71.0° (Epoch: 29 October)

Event Time Altitude Azimuth Distance (km) Brightness Sun altitude
Rises 17:56:44 0° 192° (SSW) 3,418 7.4 -4.3°
Reaches altitude 10° 17:59:12 10° 189° (S) 2,484 6.7 -4.7°
Maximum altitude 18:04:48 60° 111° (ESE) 977 4.3 -5.7°
Drops below altitude 10° 18:10:25 10° 33° (NNE) 2,489 6.4 -6.7°
Sets 18:12:54 0° 30° (NNE) 3,426 7.2 -7.1°
